GFSFLT2_925_thetae_132.txt.gz
Theta_e
351 350 346 342 342 342 342 340 339 337 334 336 340 342 343 342 340 340 340 341 340 339 339 338 334 333 335 336 335 335 340 339
350 351 351 350 349 341 341 341 340 339 338 335 336 339 340 341 339 340 339 337 337 337 336 334 337 337 336 336 336 336 338 339
348 351 351 351 350 349 342 341 341 340 340 338 336 341 342 342 341 342 338 337 336 336 336 337 338 336 336 336 336 338 338 339
344 349 350 351 349 348 349 348 346 346 345 345 343 343 343 343 342 341 341 337 338 339 339 338 336 338 338 336 337 338 338 339
328 344 349 350 348 348 348 348 347 347 347 347 345 344 344 343 343 343 342 340 342 340 340 341 340 339 338 338 338 338 338 338
329 336 342 348 347 345 347 347 345 344 344 344 346 345 345 344 343 342 343 342 342 342 342 342 341 341 341 340 340 339 337 337
322 324 329 339 339 342 343 343 341 341 341 341 342 342 342 343 343 343 342 342 341 341 343 342 343 342 341 340 340 340 339 338
314 317 319 325 334 337 338 340 340 338 339 339 338 340 341 342 341 343 342 343 343 342 339 341 342 340 340 341 341 340 339 339
309 311 314 317 320 325 329 330 334 334 334 335 336 337 337 339 340 340 340 341 343 340 341 339 338 340 340 339 340 341 340 340
306 306 308 311 314 317 318 320 320 322 323 323 327 328 329 332 336 337 338 338 337 336 339 339 338 338 339 340 340 339 340 340
304 304 304 306 310 314 313 315 315 314 315 314 312 313 315 318 325 327 331 334 335 335 336 338 336 333 334 336 337 339 339 339
303 303 302 304 305 309 311 310 312 311 309 308 308 308 309 312 315 317 320 325 329 334 335 336 334 332 332 336 336 336 337 339
301 301 301 301 302 303 305 305 309 309 306 305 305 305 307 309 310 312 314 317 321 324 328 332 334 332 330 332 329 327 335 337
301 301 300 300 300 301 301 302 304 304 303 303 302 303 304 305 307 308 310 312 314 318 322 322 326 330 332 332 334 332 333 334
299 299 298 298 299 300 301 302 302 302 301 301 301 301 302 303 304 305 307 308 310 312 315 318 321 322 328 331 333 335 334 335
299 299 298 297 297 298 298 300 300 300 300 299 300 300 300 300 301 302 302 304 306 308 309 311 313 316 320 323 329 331 334 335
298 297 297 295 296 296 297 297 297 297 298 297 298 298 299 298 298 298 299 299 301 302 303 306 310 312 315 317 320 328 331 333
297 297 296 295 295 295 295 295 295 295 295 295 296 296 297 297 296 295 296 297 298 299 300 302 303 305 308 311 314 319 327 330
296 296 296 295 294 293 294 293 293 293 292 293 293 293 294 294 294 294 294 295 295 296 298 299 300 302 304 306 310 314 317 318
295 295 294 293 292 292 291 290 291 291 291 291 291 290 291 291 291 292 293 293 293 294 295 296 298 299 301 303 304 307 311 316

GFSFLT2_925_thetae_135.txt.gz
Theta_e
349 353 348 342 342 342 342 341 339 337 335 336 340 342 342 340 342 341 340 340 342 343 342 342 339 336 333 333 336 335 336 340
346 351 354 353 350 342 341 341 341 340 338 336 335 338 341 343 343 341 339 339 339 340 340 340 338 334 334 335 335 335 337 339
339 347 350 354 354 353 348 341 341 341 340 339 337 340 343 344 344 344 340 338 338 337 338 336 336 336 337 336 336 338 338 338
329 342 346 349 349 350 352 351 349 347 346 346 345 343 342 343 343 342 342 340 337 337 337 337 338 341 339 335 336 337 337 336
333 337 345 345 343 344 343 342 347 347 347 347 347 345 344 344 343 342 343 342 340 339 340 342 342 339 338 339 340 338 337 335
325 327 334 341 346 346 346 347 346 346 345 347 347 346 345 344 342 343 341 342 341 341 341 341 341 340 340 339 338 338 336 335
320 322 326 332 336 340 344 345 343 342 341 342 341 344 345 345 344 342 341 342 341 341 342 342 342 341 341 341 340 339 338 337
315 318 320 325 329 331 334 336 338 338 339 338 339 339 340 341 342 343 341 341 341 342 342 342 342 341 341 341 340 341 341 341
312 312 315 320 324 326 327 325 326 329 328 329 330 331 333 335 338 339 340 340 340 340 339 341 342 341 339 340 340 341 341 340
310 310 311 313 317 320 320 321 320 319 319 317 318 318 320 323 326 331 332 335 338 337 333 324 335 336 338 340 341 341 341 341
308 308 308 309 311 317 317 316 317 316 316 315 313 314 315 317 322 325 325 329 332 335 336 335 337 336 336 336 339 339 339 339
307 307 306 307 308 310 312 311 314 314 311 310 310 310 311 313 315 318 319 322 326 328 330 332 337 337 336 335 336 336 335 337
306 306 305 305 306 306 307 307 310 309 308 307 307 307 309 309 311 312 314 316 318 320 323 327 328 333 333 333 333 334 334 335
306 305 304 304 304 305 306 306 306 307 306 306 305 305 306 306 308 309 310 312 313 316 318 321 323 326 330 331 334 333 333 332
305 305 304 303 303 304 305 305 306 305 304 304 304 304 304 304 305 306 306 307 309 311 313 315 317 319 322 326 332 333 331 331
304 303 301 301 301 302 303 303 303 303 303 303 302 303 302 303 303 302 302 303 304 306 308 309 311 314 316 318 322 327 329 332
303 302 301 301 300 300 301 301 300 300 300 300 300 300 300 301 301 299 299 299 300 301 302 304 305 307 310 314 317 319 321 330
302 302 300 300 299 298 299 298 298 298 298 298 298 298 298 298 296 296 295 296 297 297 298 299 300 302 304 306 310 315 316 322
301 300 299 298 298 297 296 296 295 295 295 294 294 294 294 293 293 293 293 294 294 295 295 297 298 299 300 302 304 308 311 315
300 299 298 297 296 296 295 294 293 293 292 292 292 291 291 291 291 291 291 292 293 293 293 294 296 297 298 299 301 302 305 308

GFSFLT2_925_thetae_138.txt.gz
Theta_e
351 354 351 342 342 342 342 340 338 336 335 336 338 341 342 341 339 339 340 340 339 341 344 343 344 341 338 335 331 333 332 336
344 349 354 354 352 343 342 342 341 340 338 337 336 338 341 342 341 341 341 340 337 339 340 342 343 340 337 333 332 334 332 332
341 345 347 350 353 353 351 345 341 341 340 340 338 336 338 340 342 342 342 340 337 337 339 339 339 339 336 333 335 334 333 334
330 337 344 347 347 348 349 347 347 346 345 345 346 342 341 343 344 342 341 341 339 338 337 337 339 340 335 335 335 333 337 338
324 326 332 340 344 346 346 347 345 344 345 346 345 345 345 344 343 343 342 341 340 339 338 338 339 337 340 341 337 333 336 337
322 323 326 331 337 340 343 345 344 343 343 344 343 344 345 344 342 341 341 340 341 341 341 338 338 340 340 339 340 338 337 336
317 319 323 327 330 333 335 338 338 338 339 339 340 339 340 341 342 342 340 340 340 340 340 341 341 341 342 337 341 341 339 337
313 315 318 323 326 328 330 330 331 332 332 330 331 332 333 335 336 338 340 341 341 339 339 339 339 338 338 339 340 341 340 337
312 312 313 317 321 323 324 322 322 322 319 319 320 321 320 323 327 330 332 332 333 337 338 336 335 327 328 331 339 339 339 340
310 309 310 311 315 319 318 318 318 317 316 314 314 313 314 317 320 324 324 325 329 332 334 336 334 324 326 328 335 335 335 337
309 308 308 308 309 312 313 313 314 314 310 310 309 309 310 312 314 316 316 319 322 325 326 329 333 334 327 332 331 331 334 335
308 307 306 307 307 307 308 308 310 310 308 308 307 307 308 308 310 311 312 314 316 317 319 323 327 329 332 334 335 335 336 335
308 307 306 306 307 307 308 308 307 308 306 306 305 306 306 306 306 308 309 310 311 313 316 318 321 323 327 330 332 332 333 333
307 306 305 305 305 306 306 307 307 306 306 305 304 305 304 305 304 305 304 305 307 307 311 314 315 318 324 325 328 328 330 332
305 303 302 303 303 303 304 305 305 304 304 304 302 303 302 303 303 302 301 302 303 304 305 306 308 310 314 321 325 327 325 327
304 303 303 302 301 302 302 302 302 302 302 300 301 300 301 300 299 297 298 297 299 300 301 301 303 305 308 312 315 320 322 323
304 302 302 301 300 300 300 299 300 299 298 298 297 297 297 296 294 294 294 295 295 295 296 297 298 300 302 305 306 310 314 318
303 302 301 300 299 299 298 297 297 297 295 295 294 294 293 292 292 292 292 292 293 294 294 295 296 297 298 300 302 306 309 311
302 301 300 299 298 297 297 296 295 294 293 293 292 292 291 291 290 290 291 291 291 292 292 293 294 295 296 298 298 299 301 303
301 300 299 298 297 297 295 294 294 293 292 291 290 290 290 289 289 289 289 290 290 290 291 291 292 293 294 295 296 297 298 300

GFSFLT2_925_thetae_141.txt.gz
Theta_e
352 351 351 346 341 341 341 339 337 336 336 337 339 341 341 341 340 339 338 339 339 340 341 342 342 343 341 338 336 331 330 332
348 350 350 351 351 348 341 341 341 340 339 337 336 337 339 341 342 341 339 339 340 339 339 340 342 342 342 339 336 331 331 332
332 337 341 344 348 352 349 347 343 340 340 340 339 338 337 336 338 339 340 340 341 340 339 339 340 342 341 340 336 332 332 331
323 327 336 340 342 344 347 344 344 340 343 343 344 345 344 340 340 341 341 339 338 339 339 337 338 340 340 339 336 332 333 331
319 320 324 331 336 338 342 343 331 332 343 344 345 344 344 344 343 342 342 341 341 341 341 340 339 338 339 339 337 333 334 332
316 318 323 327 328 332 335 338 337 338 337 338 338 339 339 339 339 341 340 339 340 340 340 339 339 336 335 336 338 338 339 334
313 315 321 324 326 326 327 328 332 330 329 330 331 333 333 334 335 335 336 337 337 336 337 338 338 338 335 326 325 329 336 337
311 312 315 321 322 323 322 320 321 320 323 321 322 323 323 323 325 326 329 326 330 331 332 335 336 336 335 326 324 328 335 336
309 309 310 314 318 318 318 318 317 315 314 314 315 313 316 318 318 319 318 321 324 328 332 333 334 333 326 325 326 326 331 337
308 308 308 308 310 313 313 315 314 311 309 308 307 308 308 311 312 312 314 316 318 319 321 325 328 332 330 325 328 328 325 330
307 306 307 307 307 308 308 310 310 307 307 306 305 305 305 306 307 309 310 312 313 314 316 318 324 327 331 328 325 327 327 331
307 306 306 306 306 307 307 307 307 306 306 305 305 304 304 305 304 305 305 306 308 310 311 314 316 318 321 324 330 334 334 332
305 304 304 305 306 306 306 307 305 305 305 304 303 303 303 304 303 303 302 302 304 305 306 308 312 314 321 323 323 328 331 331
303 302 302 303 303 304 304 304 302 302 302 301 301 300 300 300 299 298 298 299 299 300 301 302 305 307 311 316 321 324 326 327
303 302 302 301 302 301 301 301 301 300 299 298 298 298 296 296 295 295 294 295 295 296 297 298 299 301 304 309 316 321 317 319
302 302 301 300 300 299 299 299 298 297 296 296 295 294 293 292 292 292 292 293 293 294 295 295 297 298 300 304 302 305 316 318
302 301 300 299 298 298 297 296 296 295 294 293 292 292 291 290 290 290 291 291 292 292 293 293 294 296 297 298 299 301 304 311
301 300 299 298 297 296 295 295 294 293 292 291 290 290 290 289 289 289 290 290 290 291 291 292 292 293 294 296 298 299 301 302
300 299 298 297 296 295 294 293 292 291 290 289 289 289 289 288 288 288 289 289 289 289 289 290 291 291 292 293 294 296 297 299
300 299 298 297 296 294 293 292 291 290 289 289 289 288 288 288 287 288 287 287 286 287 288 289 289 289 290 291 292 293 294 296

GFSFLT2_925_thetae_144.txt.gz
Theta_e
346 346 345 342 341 341 340 339 338 337 336 336 338 339 340 341 340 339 338 338 339 339 341 342 342 342 340 341 338 335 333 330
339 343 347 348 349 344 341 341 341 340 339 338 337 336 338 338 339 339 340 339 339 340 340 340 340 340 341 341 339 336 334 330
322 329 337 342 345 349 347 343 342 342 341 341 340 339 338 338 337 338 338 338 339 338 339 339 338 338 341 341 341 338 334 330
318 324 329 334 339 344 346 344 342 340 342 344 344 344 344 344 344 343 343 343 341 340 339 339 338 337 337 338 341 340 337 332
316 322 326 328 332 338 340 340 332 333 335 338 340 342 340 341 341 340 339 339 339 340 339 339 338 337 337 336 337 339 338 337
314 320 322 325 326 331 334 335 334 331 329 329 331 331 330 332 333 332 333 333 334 333 334 335 336 338 338 333 332 330 330 335
312 316 319 322 321 322 323 324 323 320 321 321 321 322 324 325 327 328 327 327 327 329 331 333 335 335 335 334 331 329 330 332
310 311 314 318 318 319 317 317 314 313 312 313 315 315 316 320 320 317 320 321 326 327 329 331 333 333 333 334 326 326 328 325
308 308 310 316 312 316 316 312 311 309 308 307 306 307 308 311 312 313 315 316 317 321 323 325 327 330 331 327 325 325 325 327
307 307 308 308 308 311 310 307 307 306 306 305 305 304 305 305 306 307 308 310 312 315 315 318 322 326 328 330 325 326 326 326
306 307 307 307 307 307 308 307 306 304 304 304 303 304 304 304 303 303 303 305 306 307 310 311 314 317 319 324 328 326 326 327
306 306 306 306 307 307 306 305 305 303 302 302 301 302 302 302 301 301 301 301 301 303 304 306 310 311 315 320 322 325 330 331
304 303 304 305 306 305 304 302 302 301 300 300 299 299 299 298 297 297 297 297 297 298 299 300 304 306 312 314 316 319 323 329
302 301 302 302 303 303 302 301 299 299 298 297 296 296 296 295 295 294 294 294 295 295 296 296 298 299 300 306 317 319 322 324
302 301 301 301 300 301 301 300 298 297 295 294 293 292 292 291 291 292 292 292 292 293 294 295 296 297 298 302 311 314 308 316
301 300 300 299 299 299 298 297 294 293 293 292 291 291 290 290 290 290 290 291 291 292 293 293 294 295 296 299 298 299 308 308
301 299 299 298 297 297 296 294 293 292 292 291 290 289 289 288 289 289 289 290 290 290 291 291 292 293 294 295 296 298 300 303
300 299 297 297 296 295 294 293 292 291 290 289 289 288 288 288 288 288 288 288 288 288 289 290 290 291 291 293 294 296 297 299
299 298 297 296 295 294 293 292 291 289 289 288 288 288 287 287 287 286 285 286 287 288 288 288 288 289 289 290 290 292 293 295
299 298 296 295 294 293 292 291 290 289 289 288 287 287 287 286 286 285 285 285 286 287 287 286 286 286 287 287 287 287 289 291

GFSFLT2_925_thetae_147.txt.gz
Theta_e
345 346 345 342 341 340 339 338 337 337 337 337 338 338 339 340 340 340 339 339 338 338 339 340 341 343 341 339 338 337 336 334
338 342 343 345 348 345 342 341 341 340 340 339 339 339 340 342 343 342 343 342 342 340 339 338 339 339 338 337 339 340 338 335
326 333 339 342 342 345 346 343 342 341 340 341 341 340 340 339 340 340 341 341 341 341 341 340 339 338 337 335 335 337 337 337
322 324 328 335 339 340 341 338 337 336 335 337 340 340 341 341 340 340 340 339 339 340 340 339 339 338 338 337 335 334 334 338
321 322 323 327 333 336 334 332 332 332 332 332 332 332 332 331 332 334 334 332 333 335 334 335 335 336 338 336 335 335 335 335
319 321 322 323 326 329 328 325 324 324 324 325 325 326 325 326 328 327 328 328 328 329 331 332 333 334 336 336 335 335 333 334
314 319 319 319 320 321 320 317 315 314 314 315 318 318 320 321 320 321 321 322 324 326 326 332 331 333 334 334 334 334 326 328
312 317 317 317 318 315 313 311 310 309 307 306 307 309 312 314 315 315 316 316 317 321 320 324 328 328 331 332 331 332 329 329
311 315 314 315 316 312 310 309 308 306 305 305 305 304 305 306 306 307 308 310 313 316 318 319 322 326 328 329 329 327 325 326
308 309 309 312 310 309 307 306 306 304 304 304 304 304 303 303 303 302 302 304 305 307 309 312 314 317 320 323 327 328 325 325
307 307 307 308 308 307 306 305 304 303 303 302 302 302 302 301 301 300 301 301 301 301 302 303 306 310 312 316 320 323 326 326
306 306 306 306 306 306 305 303 302 301 300 299 299 299 299 299 298 297 297 297 298 299 299 300 304 303 305 310 314 317 322 325
304 305 305 305 304 304 304 300 299 298 297 297 297 296 296 296 296 295 295 295 294 295 296 297 298 299 302 306 309 313 316 318
302 302 302 304 304 303 301 299 296 296 295 295 294 294 294 294 293 293 293 293 294 294 293 294 295 296 297 300 312 314 316 318
300 300 300 301 302 301 300 297 296 295 293 292 291 291 291 291 291 291 291 291 291 292 292 293 293 294 296 300 305 309 302 309
299 299 299 298 299 299 298 295 293 291 291 290 290 289 289 289 289 289 290 290 290 290 291 292 292 293 294 296 296 297 302 303
299 298 297 297 297 296 295 293 291 291 290 290 289 288 288 288 288 288 288 288 288 289 289 290 290 291 292 293 294 295 297 300
298 297 296 295 295 294 293 292 291 290 289 289 288 287 287 287 287 286 287 287 288 288 288 288 289 289 289 290 291 293 294 295
297 296 295 294 294 293 292 291 290 289 288 288 287 287 286 286 285 286 286 287 287 287 286 286 286 287 287 287 287 288 289 290
297 296 294 294 293 292 291 290 289 289 288 287 287 286 285 285 285 285 285 285 285 284 284 284 284 284 284 285 285 285 285 286